www.pogodaiklimat.ru

Погода и климат >> Архив погоды >> Германия >> Майнинген


ПОГОДА в Майнингене

  • Прогноз погоды в Майнингене
  • Монитор погоды в Майнингене

АРХИВ ПОГОДЫ в Майнингене

Время (UTC), дата Ветер
(напр.,м/с)
 
Видим.   Явления Облачность Т
(С)
Тd
(С)
f
(%)
Тe
(С)
Тes
(С)
Комфортность P
(гПа)
Po
(гПа)
Тmin
(С)
Tmax
(С)
R
(мм)
R24
(мм)
S
(см)
16 13.09 С 1 >70 км 10/10 960 м
[]
+19.3 +13.1 67 +22 +22 комфорт 1030.4 977.9
17 13.09 СЗ 5 >70 км 9/9 840 м
[]
+17.6 +12.9 74 +17 +17 1031.2 978.4
18 13.09 С 3 >70 км {морось} 9/9 1000 м
[]
+16.8 +12.0 73 +17 +17 1031.7 978.7 +13.4 +20.4
19 13.09 С 4 65 км 9/9 1230 м
[]
+16.3 +11.8 75 +16 +16 1032.2 979.1
20 13.09 С 2 >70 км 8/8 800 м
[]
+15.0 +11.8 81 +15 +15 1032.8 979.4
21 13.09 С 3 >70 км 9/9 1500 м
[]
+14.5 +11.7 83 +14 +14 1033.2 979.7
22 13.09 С 3 55 км 9/9 750 м
[]
+14.8 +12.0 83 +14 +14 1033.4 979.9
23 13.09 С 4-5
{6}
60 км 9/9 1500 м
[]
+14.2 +11.0 81 +13 +13 1033.5 979.9
00 14.09 С 3 55 км 5/5 1500 м
[]
+12.8 +10.2 84 +11 +11 1033.7 979.8
01 14.09 С 3-3
{5}
55 км ясно +11.9 +8.3 79 +10 +10 1034.0 979.9
02 14.09 С 3-4
{5}
60 км ясно +10.8 +7.6 81 +9 +9 1034.2 979.9
03 14.09 С 2-3
{5}
55 км ясно +10.5 +6.2 75 +9 +9 1034.2 979.8
04 14.09 С 3 50 км 9/9 1500 м
[]
+9.9 +5.7 75 +8 +8 1034.4 979.9
05 14.09 СЗ 3-3
{5}
50 км 1/0
[]
+9.4 +5.4 76 +7 +7 1034.5 979.9
06 14.09 С 3 65 км ясно +9.9 +5.8 76 +8 +8 1034.7 980.2 +8.7 +16.9
07 14.09 С 1-2
{4}
50 км ясно +11.7 +5.5 66 +12 +14 1034.2 980.0
08 14.09 ЮВ 2-3
{3}
45 км ясно +13.5 +6.3 62 +13 +17 1033.7 979.9
09 14.09 СВ 2 65 км 1/1 1080 м
[]
+15.5 +7.9 61 +15 +21 1033.3 979.9
10 14.09 СВ 2-3
{5}
45 км 1/1 1110 м
[]
+16.4 +7.5 56 +17 +24 1032.9 979.7
11 14.09 СВ 2-5
{5}
55 км ясно +17.6 +8.4 55 +18 +28 1032.0 979.0
12 14.09 С 2 65 км 5/5 1170 м
[]
+18.2 +7.7 50 +19 +23 1031.3 978.5
13 14.09 СЗ 1-3
{3}
40 км ясно +20.1 +6.9 42 +22 +31 комфорт 1030.3 977.8
14 14.09 СВ 3-6
{6}
40 км ясно +20.3 +7.2 43 +22 +26 комфорт 1029.5 977.1
15 14.09 С 2-4
{6}
>70 км ясно +20.2 +5.1 37 +21 +25 комфорт 1028.9 976.5
16 14.09 С 4 55 км 9/0
[]
+19.8 +6.7 42 +21 +21 комфорт 1028.5 976.1
17 14.09 С 3 >70 км 10/0
[]
+18.2 +7.6 50 +18 +18 1028.6 975.9
18 14.09 С 2 55 км 10/0
[]
+15.9 +8.6 62 +16 +16 1029.2 976.1 +10.0 +21.1
19 14.09 С 2 55 км 10/0
[]
+14.9 +8.5 66 +15 +15 1029.7 976.4
20 14.09 СЗ 2 50 км 4/0
[]
+14.1 +8.3 68 +14 +14 1029.6 976.1
21 14.09 СВ 1-1
{4}
60 км ясно +13.4 +8.2 71 +14 +14 1029.2 975.6
22 14.09 штиль 0-1
{1}
50 км ясно +12.6 +8.1 74 +12 +12 1029.0 975.3
23 14.09 С 1-1
{2}
55 км ясно +12.0 +8.1 77 +12 +12 1028.8 975.0
00 15.09 Ю 2 50 км ясно +10.7 +7.8 82 +9 +9 1028.2 974.2
01 15.09 Ю 1-1
{2}
45 км ясно +9.7 +7.8 88 +9 +9 1027.9 973.7
02 15.09 Ю 2-3
{3}
40 км ясно +9.1 +7.5 90 +7 +7 1027.5 973.2
03 15.09 Ю 1-2
{3}
40 км ясно +8.8 +7.4 91 +8 +8 1027.3 973.0
04 15.09 Ю 2-3
{3}
30 км ясно +7.9 +6.9 93 +6 +6 1027.0 972.5
05 15.09 ЮЗ 1-2
{4}
30 км 10/0
[]
+7.7 +6.8 94 +7 +7 1026.8 972.3
06 15.09 Ю 2 40 км 4/0
[]
+9.6 +7.9 89 +8 +8 1026.3 972.2 +7.7 +15.9
07 15.09 Ю 1 65 км 10/0
[]
+11.2 +8.5 83 +11 +12 1025.8 972.0
08 15.09 Ю 2 >70 км 8/0
[]
+14.4 +9.7 73 +14 +16 1025.1 972.0
09 15.09 Ю 3 55 км 5/0
[]
+16.6 +10.3 66 +16 +20 1024.2 971.5
10 15.09 Ю 3-5
{6}
55 км н/о +19.3 +10.7 57 +21 +21 комфорт 1023.2 971.0
11 15.09 Ю 3-5
{7}
55 км н/о +21.3 +10.2 49 +23 +23 комфорт 1022.4 970.6
12 15.09 Ю 2 >70 км 8/0
[]
+22.6 +9.5 43 +24 +30 комфорт 1021.8 970.2
13 15.09 З 3 60 км 9/0
[]
+24.3 +7.0 33 +24 +28 комфорт 1020.8 969.5
14 15.09 З 3 >70 км 10/0
[]
+24.2 +6.7 32 +24 +27 комфорт 1020.3 969.0
15 15.09 З 3 >70 км 10/0
[]
+24.2 +4.3 28 +24 +25 комфорт 1019.8 968.5
16 15.09 З 3 >70 км 9/0
[]
+23.4 +4.2 29 +23 +24 комфорт 1019.5 968.1
17 15.09 З 3 >70 км 10/0
[]
+22.0 +6.0 35 +23 +23 комфорт 1019.5 967.9
18 15.09 З 3 >70 км 9/0
[]
+20.1 +6.4 41 +21 +21 комфорт 1020.2 968.3 +9.6 +24.7
19 15.09 З 2-3
{4}
>70 км ясно +18.9 +5.2 41 +20 +20 1020.7 968.5
20 15.09 З 3-6
{6}
>70 км ясно +18.7 +3.3 36 +19 +19 1020.9 968.6
21 15.09 З 4 >70 км 6/0
[]
+17.4 +3.2 39 +17 +17 1021.1 968.6
22 15.09 СЗ 4-5
{6}
>70 км ясно +17.2 +3.7 41 +17 +17 1020.9 968.4
23 15.09 ЮВ 1-1
{6}
>70 км ясно +14.7 +4.5 50 +15 +15 1021.4 968.4
00 16.09 штиль 0 >70 км ясно +12.5 +5.8 64 +12 +12 1021.5 968.1
01 16.09 Ю 1-3
{3}
65 км 3/0
[]
+10.7 +6.1 73 +11 +11 1021.7 968.0
02 16.09 Ю 2-2
{3}
60 км 5/0
[]
+10.9 +6.1 72 +10 +10 1021.6 968.0
03 16.09 С 1 65 км 10/0
[]
+10.4 +6.1 75 +10 +10 1021.9 968.1
04 16.09 С 2-2
{2}
65 км 10/0
[]
+12.1 +5.1 62 +11 +11 1020.9 967.5
05 16.09 ЮВ 1 50 км 9/9 570 м
[]
+11.2 +5.7 69 +11 +11 1021.0 967.4
06 16.09 Ю 1 40 км 10/10 600 м
[]
+12.5 +6.6 67 +13 +13 1020.9 967.6 +9.7 +20.2
07 16.09 ЮВ 2 60 км 9/9 480 м
[]
+12.5 +7.9 74 +12 +12 1020.3 967.0
08 16.09 В 1 55 км 10/0
[]
+14.6 +8.9 69 +15 +17 1020.4 967.5
09 16.09 В 1 55 км 10/0
[]
+15.5 +10.2 71 +16 +20 1020.3 967.6
10 16.09 Ю 3 50 км 10/0
[]
+16.3 +10.5 69 +16 +19 1019.5 967.0
11 16.09 ЮЗ 2-4
{5}
65 км 10/0
[]
+18.0 +9.9 59 +19 +23 1019.2 967.0
12 16.09 Ю 3 55 км в посл. час дождь {морось} 10/0
[]
+18.0 +10.0 59 +18 +22 1018.5 966.3 0.0
13 16.09 Ю 2 >70 км 10/10 1140 м
[]
+18.5 +9.8 57 +19 +19 1018.0 965.9
14 16.09 Ю 2-3
{4}
65 км 9/9 1080 м
[]
+18.7 +10.2 58 +20 +20 1017.5 965.5
15 16.09 З 3 >70 км 10/10 1200 м
[]
+18.6 +10.1 58 +19 +19 1017.3 965.3
16 16.09 СЗ 2 >70 км в посл. час дождь {морось} 9/9 1300 м
[]
+18.1 +10.6 62 +19 +19 1017.2 965.1
17 16.09 С 3 15 км слаб. дождь {морось} 10/10 1000 м
[]
+16.0 +11.8 76 +16 +16 1017.6 965.2
18 16.09 СЗ 3 30 км слаб. морось {дождь} 10/10 600 м
[]
+14.1 +12.4 89 +13 +13 1018.2 965.4 +11.6 +18.8 0.1
19 16.09 СЗ 3 3100 м сильн. морось 9/9 90 м
[]
+13.6 +13.1 97 +12 +12 1018.4 965.5
20 16.09 С 5-7
{7}
7000 м слаб. морось {дождь} 9/9 90 м
[]
+13.0 +12.3 96 +11 +11 1018.8 965.8
21 16.09 С 4 5000 м слаб. морось с дождем 9/9 60 м
[]
+12.2 +11.8 97 +10 +10 1019.0 965.8 0.8
22 16.09 СЗ 5 45 км в посл. час дождь {морось} 6/6 120 м
[]
+11.9 +11.1 95 +9 +9 1019.2 965.9
23 16.09 СЗ 5 8000 м 10/10 90 м
[]
+11.6 +11.1 97 +9 +9 1019.2 965.9
00 17.09 С 3 19 км в посл. час дождь {морось} 10/10 100 м
[]
+11.1 +10.3 95 +9 +9 1019.4 966.0 0.1
01 17.09 СЗ 2 27 км 9/9 150 м
[]
+10.9 +10.0 94 +9 +9 1019.6 966.1
02 17.09 СЗ 3 21 км 9/9 180 м
[]
+10.5 +9.6 94 +8 +8 1019.3 965.8
03 17.09 С 1 19 км 9/9 180 м
[]
+10.2 +9.2 94 +10 +10 1019.3 965.7
04 17.09 СЗ 2 13 км 6/6 240 м
[]
+9.2 +8.5 95 +7 +7 1019.5 965.7
05 17.09 СЗ 2-2
{3}
12 км 8/8 270 м
[]
+8.9 +8.3 96 +7 +7 1020.0 966.1
06 17.09 СЗ 1 13 км 9/9 200 м
[]
+9.0 +8.2 95 +8 +8 1020.2 966.3 +8.8 +14.1 0.9
07 17.09 З 2-3
{3}
30 км 8/8 870 м
[]
+10.0 +7.8 86 +8 +9 1020.0 966.3
08 17.09 З 3-5
{6}
55 км 3/3 660 м
[]
+11.6 +7.1 74 +10 +12 1019.7 966.3
09 17.09 СЗ 3 45 км 9/9 720 м
[]
+11.8 +6.2 69 +10 +11 1020.0 966.6
10 17.09 З 4-8
{9}
>70 км 3/3 900 м
[]
+13.9 +5.8 58 +13 +16 1019.0 966.0
11 17.09 З 5 60 км 9/9 1000 м
[]
+14.9 +6.1 56 +14 +14 1018.6 965.8
12 17.09 СЗ 6 55 км 6/6 1080 м
[]
+14.9 +4.8 51 +13 +15 1018.3 965.5
13 17.09 З 5 60 км 8/8 1260 м
[]
+15.5 +4.9 49 +14 +15 1017.8 965.2
14 17.09 З 6 60 км 9/9 1470 м
[]
+15.1 +4.4 49 +14 +14 1017.9 965.2
15 17.09 З 6 55 км 8/8 1500 м
[]
+15.1 +4.3 48 +14 +14 1017.9 965.2
16 17.09 СЗ 5-10
{10}
50 км 9/9 1500 м
[]
+14.6 +4.1 49 +13 +13 1018.1 965.3
17 17.09 СЗ 5 >70 км 10/10 1410 м
[]
+14.2 +4.3 51 +13 +13 1018.4 965.5
18 17.09 СЗ 7 60 км 9/9 1000 м
[]
+12.7 +5.6 62 +10 +10 1019.4 966.2 +9.1 +15.8
19 17.09 СЗ 6 65 км 9/9 1050 м
[]
+12.0 +5.5 64 +9 +9 1020.5 967.1
20 17.09 С 5 50 км 9/9 840 м
[]
+11.4 +5.4 67 +9 +9 1021.2 967.7
21 17.09 СЗ 3 50 км 5/0
[]
+9.6 +4.4 70 +7 +7 1022.2 968.3
22 17.09 СЗ 3-4
{7}
45 км ясно +8.7 +3.3 69 +6 +6 1022.9 968.7
23 17.09 З 2-3
{5}
45 км 3/3 1050 м
[]
+8.0 +3.8 75 +6 +6 1023.3 969.0
00 18.09 З 2 45 км 9/0
[]
+7.4 +3.3 75 +5 +5 1024.0 969.5
01 18.09 З 3 45 км 9/9 700 м
[]
+6.4 +3.1 79 +3 +3 1024.3 969.6
02 18.09 СЗ 4-6
{6}
35 км ясно +6.4 +3.4 81 +3 +3 1024.3 969.6
03 18.09 СЗ 4-5
{6}
35 км ясно +6.2 +3.4 82 +2 +2 1024.5 969.8
04 18.09 СЗ 2-2
{5}
30 км 1/0
[]
+5.6 +3.4 86 +3 +3 1025.1 970.2
05 18.09 С 1-1
{2}
30 км 9/9 480 м
[]
+5.2 +3.5 89 +4 +4 1025.7 970.7
06 18.09 З 2 30 км 8/8 300 м
[]
+6.1 +3.9 86 +4 +4 1025.9 971.1 +4.7 +12.8
07 18.09 С 1-2
{2}
35 км 9/9 480 м
[]
+7.6 +4.5 81 +7 +7 1026.2 971.7
08 18.09 СЗ 4 29 км 8/8 450 м
[]
+8.9 +5.1 77 +6 +6 1026.4 972.1
09 18.09 С 3 28 км 9/9 540 м
[]
+10.7 +5.7 71 +9 +9 1026.1 972.2
10 18.09 С 3 50 км 9/9 660 м
[]
+10.9 +4.0 62 +9 +10 1026.2 972.3
11 18.09 С 4-7
{8}
35 км 6/6 1110 м
[]
+11.9 +3.5 56 +10 +12 1025.9 972.2
12 18.09 С 2 40 км 3/3 1170 м
[]
+12.6 +1.2 46 +12 +18 1025.6 972.0
13 18.09 СЗ 4-7
{7}
>70 км 1/1 1260 м
[]
+14.4 +2.1 43 +13 +18 1024.7 971.5
14 18.09 С 5-7
{10}
>70 км 5/5 1500 м
[]
+12.9 -0.2 40 +11 +13 1024.8 971.3
15 18.09 СЗ 5-8
{11}
50 км ясно +14.5 +0.3 38 +13 +15 1024.3 971.1
16 18.09 СЗ 5-7
{10}
45 км ясно +13.5 +1.4 44 +12 +12 1024.5 971.1
17 18.09 СЗ 4-6
{9}
50 км 5/0
[]
+12.3 +0.8 45 +11 +11 1024.8 971.2
18 18.09 СЗ 2 55 км ясно +10.1 +1.2 54 +9 +9 1025.6 971.5 +6.1 +14.9
19 18.09 СЗ 3-4
{5}
50 км ясно +9.5 +1.1 56 +8 +8 1026.3 972.1
20 18.09 СЗ 3-4
{4}
55 км ясно +8.7 +1.8 62 +6 +6 1026.9 972.5
21 18.09 СЗ 3 50 км 9/9 1140 м
[]
+8.2 +2.3 66 +6 +6 1027.2 972.7
22 18.09 СЗ 3 55 км 9/0
[]
+8.2 +2.7 68 +6 +6 1027.2 972.7
23 18.09 СЗ 3 55 км 10/0
[]
+7.8 +3.2 73 +5 +5 1027.7 973.1
00 19.09 СЗ 3 55 км 10/0
[]
+7.2 +3.4 77 +4 +4 1027.9 973.2
01 19.09 СЗ 3 50 км 9/0
[]
+6.5 +3.4 81 +3 +3 1028.1 973.3
02 19.09 СЗ 2-3
{4}
50 км 6/0
[]
+5.4 +3.0 85 +3 +3 1028.5 973.4
03 19.09 СЗ 2-2
{4}
50 км ясно +5.3 +3.4 88 +3 +3 1028.5 973.4
04 19.09 С 1-1
{2}
40 км ясно +4.2 +3.3 94 +3 +3 1029.0 973.7
05 19.09 СЗ 3-3
{3}
35 км ясно +4.2 +3.1 93 0 0 1029.5 974.1
06 19.09 С 1 30 км ясно +4.3 +2.7 89 +3 +3 1029.7 974.3 +3.7 +10.3
07 19.09 С 1 40 км 6/0
[]
+6.7 +3.8 82 +6 +7 1029.7 974.8
08 19.09 С 4-7
{7}
60 км 1/0
[]
+8.0 +3.4 73 +5 +7 1030.2 975.5
09 19.09 С 4 50 км 3/3 1230 м
[]
+9.4 +2.6 62 +7 +10 1030.2 975.8
10 19.09 С 4-6
{7}
55 км 8/8 1230 м
[]
+10.3 +1.5 54 +8 +9 1030.3 976.0
11 19.09 С 4 60 км 4/4 1300 м
[]
+11.1 +1.1 50 +9 +13 1030.2 976.1
12 19.09 С 5 60 км 9/9 1260 м
[]
+11.5 +1.0 48 +9 +10 1029.8 975.8
13 19.09 СВ 4 60 км 8/8 1350 м
[]
+12.1 +0.5 45 +10 +11 1029.5 975.6
14 19.09 С 2 60 км 9/9 1410 м
[]
+13.3 +1.1 43 +13 +13 1029.3 975.6
15 19.09 СВ 2 >70 км 9/0
[]
+13.1 +1.1 44 +13 +14 1028.7 975.0
16 19.09 СВ 3 60 км 9/0
[]
+11.9 +1.0 47 +11 +11 1029.0 975.1
17 19.09 С 2-3
{4}
>70 км 1/0
[]
+11.5 +1.4 50 +11 +11 1029.2 975.2
18 19.09 С 2 55 км 6/6 1500 м
[]
+9.8 +1.2 55 +9 +9 1029.9 975.6 +4.3 +13.4
19 19.09 СЗ 2 >70 км 5/5 1500 м
[]
+8.8 +1.3 59 +7 +7 1030.4 975.8
20 19.09 СЗ 2-2
{2}
60 км 4/0
[]
+8.9 +1.3 59 +8 +8 1030.7 976.1
21 19.09 СВ 1 50 км 4/0
[]
+6.8 +2.0 71 +6 +6 1031.5 976.5
22 19.09 штиль 0 55 км 9/0
[]
+6.3 +2.0 74 +6 +6 1031.7 976.6
23 19.09 С 1 60 км 10/0
[]
+5.3 +1.4 76 +4 +4 1031.6 976.3
00 20.09 С 1 55 км 3/0
[]
+4.9 +1.5 79 +4 +4 1031.6 976.2
01 20.09 С 1 50 км 8/0
[]
+4.0 +1.4 83 +3 +3 1031.4 975.9
02 20.09 С 1-2
{2}
45 км 1/0
[]
+3.5 +1.2 85 +2 +2 1031.2 975.6
03 20.09 С 1 50 км 3/0
[]
+3.2 +1.0 85 +2 +2 1031.3 975.6
04 20.09 С 2 45 км 9/0
[]
+2.6 +0.7 87 -1 -1 1031.3 975.5
05 20.09 СВ 1 45 км 10/0
[]
+2.1 +0.8 91 0 0 1031.3 975.4
06 20.09 СВ 1 45 км 8/0
[]
+2.8 +0.5 85 +1 +1 1031.5 975.7 +2.1 +10.1
07 20.09 СВ 1 45 км 9/0
[]
+5.6 +2.5 80 +5 +6 1031.2 976.0
08 20.09 СВ 1 55 км 9/0
[]
+8.3 +3.4 71 +8 +10 1030.9 976.2
09 20.09 В 1 55 км 8/0
[]
+11.2 +2.2 54 +11 +15 1030.4 976.3
10 20.09 В 1 30 км 9/0
[]
+13.0 +2.4 49 +13 +18 1029.4 975.7
11 20.09 С 2 60 км 10/0
[]
+13.2 +1.4 45 +13 +17 1029.2 975.5
12 20.09 В 1 50 км 10/0
[]
+14.5 +1.7 42 +15 +20 1028.6 975.2
13 20.09 СВ 2-4
{4}
3300 м дым 1/0
[]
+15.0 +2.3 42 +15 +22 1028.1 974.8
14 20.09 С 2-3
{5}
50 км ясно +15.7 +2.0 40 +16 +21 1027.3 974.2
15 20.09 СЗ 2-4
{5}
35 км ясно +15.9 +1.7 38 +16 +19 1026.7 973.6

 

Местоположение метеостанции Майнинген (Германия): широта 50.57 долгота 10.38 высота над уровнем моря 453 м.

В архиве по умолчанию представлена погода в Майнингене за последнюю неделю. Архивные данные за месяц целиком и за предыдущие месяцы, начиная с января 2011 года, Вы можете получить, выбрав интересующий диапазон дат из раскрывающегося списка и нажав кнопку "Ввод!".


*Определитесь, кто Вы:
робот инопланетянин человек

Внимание! Время в таблицах - всемирное. Для получения местного времени необходимо прибавить поправку, которая равна 1 ч.

Смотрите также архив погоды в соседних городах и на ближайших метеорологических станциях:

Погода в Шмюкке (Германия) (29 км)
Погода на Вассеркуппе (Германия) (31 км)
Погода в Бад-Киссингене (Германия) (46 км)
Погода в Айзенахе (Германия) (48 км)
Погода в Кобурге (Германия) (53 км)
Погода в Нойхаусе (Германия) (54 км)
Погода в Бад-Херсфельде (Германия) (57 км)
Погода в Биндерслебене (Германия) (62 км)
Погода на Хоэродскопфе (Германия) (82 км)
Погода в Бамберге (Германия) (86 км)

Пояснения к столбцам:

Ветер - указаны скорость ветра в м/с - средняя за 10 мин, порывы в срок и между сроками (в фигурных скобках) и направление, откуда дует ветер: С - северный, СВ - северо-восточный, В - восточный, ЮВ - юго-восточный, Ю - южный, ЮЗ - юго-западный, З - западный, СЗ - северо-западный.
Видимость - горизонтальная дальность видимости в метрах или километрах. При видимости от 1 до 10 км при отсутствии осадков обычно наблюдается дымка, при ухудшении видимости до 1 км и менее - туман. В сухую погоду видимость может ухудшаться дымом, пылью или мглою.
Явления - указаны атмосферные явления, наблюдавшиеся в срок или в последний час перед сроком; фигурными скобками обозначены явления, наблюдавшиеся между сроками (за 1-3 часа до срока); квадратными скобками обозначены град или гололедные отложения с указанием их диаметра в мм.
Облачность - указаны через наклонную черту общая и нижняя облачность в баллах и высота нижней границы облаков в метрах; квадратными скобками обозначены формы облаков: Ci - перистые, Cs - перисто-слоистые, Cc - перисто-кучевые, Ac - высококучевые, As - высокослоистые, Sc - слоисто-кучевые, Ns - слоисто-дождевые, Cu - кучевые, Cb - кучево-дождевые. Подробнее классификацию облаков см. в Атласе облаков (PDF).
T - Температура воздуха - температура, измеренная на высоте 2 м над землей.
Td - Температура точки росы - температура, при понижении до которой содержащийся в воздухе водяной пар достигнет насыщения.
f - Относительная влажность воздуха - влажноcть воздуха, измеренная на высоте 2 м над землей.
Te - Эффективная температура - температура, которую ощущает одетый по сезону человек в тени. Характеристика душности погоды. При расчете учитывается влияние влажности воздуха и скорости ветра на теплоощущения человека.
Tes - Эффективная температура на солнце - температура, которую ощущает человек, с поправкой на солнечный нагрев. Характеристика знойности погоды. Зависит от высоты солнца над горизонтом, облачности и скорости ветра. Ночью, в пасмурную погоду, а также при ветре 12 м/с и более поправка равна нулю.
P - Атмосферное давление - приведенное к уровню моря атмосферное давление.
Po - Атмосферное давление - измеренное на уровне метеостанции атмосферное давление.
Tmin - Минимальная температура - минимум температуры воздуха на высоте 2 м над землей.
Tmax - Максимальная температура - максимум температуры воздуха на высоте 2 м над землей.
R - Количество осадков - Количество выпавших осадков за период времени, мм. При наведении курсора мыши на число - период времени, за который выпало указанное количество осадков.
R24 - Количество осадков - Количество выпавших осадков за 24 часа, мм.
S - Снежный покров - Высота снежного покрова, см. При наведении курсора мыши на число - состояние снежного покрова и степень покрытия местности в баллах.